Location: Carter Cabin
(41.0271°N, 122.9339°W)
Time: 14:11:24
(UTC+00:00)

KORONAS-FOTON - Pass Details

Date: 13 April 2024
Orbit: 478 x 498 km, 82.4° (Epoch: 22 May)

Event Time Altitude Azimuth Distance (km) Brightness Sun altitude
Rises 12:51:17 0° 183° (S) 2,554 7.1 -8.7°
Reaches altitude 10° 12:53:23 10° 182° (S) 1,673 6.2 -8.3°
Maximum altitude 12:57:02 78° 97° (E) 503 3.9 -7.6°
Drops below altitude 10° 13:00:42 10° 11° (N) 1,673 6.8 -7.0°
Sets 13:02:48 0° 10° (N) 2,555 7.7 -6.6°
